Regional Weather Roundup
Issued by NWS

Home | Current Version | Previous Version | Text Only | Print | Product List | Glossary On
Versions: 1 2 3 4 5 6 7 8 9 10 11 12 13 14 15 16 17 18 19 20 21 22 23 24 25 26 27 28 29 30 31 32 33 34 35 36 37 38 39 40 41 42 43 44 45 46 47 48 49 50
000
ASUS43 KMPX 220901
RWRMN
WEATHER ROUNDUP FOR MINNESOTA
NATIONAL WEATHER SERVICE TWIN CITIES/CHANHASSEN MN
300 AM CST SUN JAN 22 2017


NOTE: "FAIR" INDICATES FEW OR NO CLOUDS BELOW 12,000 FEET WITH NO
SIGNIFICANT WEATHER AND/OR OBSTRUCTIONS TO VISIBILITY. N/A MEANS
CURRENT SKY AND/OR WEATHER CONDITIONS ARE NOT AVAILABLE.

MNZ060>063-068>070-221000-
   Twin Cities Metro

CITY           SKY/WX    TMP DP  RH WIND       PRES   REMARKS
TWIN CITIES    CLOUDY    35  34  96 N5        29.58R WCI  31
ST PAUL        CLOUDY    35  35 100 NW7       29.59R WCI  29
CRYSTAL        FOG       35  33  92 NW3       29.58R VSB 3/4
BLAINE         FOG       36  36 100 N5        29.58R VSB 3/4
LAKEVILLE        N/A     34  34 100 NW6       29.57R FOG     WCI  29
EDEN PRAIRIE   FOG       35  34  96 N6        29.57R VSB 3/4 WCI  30
SOUTH ST PAUL  CLOUDY    36  36  99 NW3       29.58R FOG
LAKE ELMO      CLOUDY    34  34 100 CALM      29.58R FOG
$$
MNZ001>005-007-008-013>017-022>024-027-028-221000-
   Northwest Minnesota

CITY           SKY/WX    TMP DP  RH WIND       PRES   REMARKS
BEMIDJI        CLOUDY    32  32 100 CALM      29.60S FOG
HALLOCK        DRIZZLE   34  34 100 CALM      29.63R
ROSEAU         HAZE      34  28  80 CALM      29.64R VSB 1/4
WARROAD        CLOUDY    34  28  80 CALM      29.64R FOG
THIEF RVR FALL FOG       33  32  96 CALM      29.63R VSB 1/2
CROOKSTON      MIX PCPN  34  34 100 CALM      29.64R VSB 1/2
FOSSTON        FOG       30  30 100 CALM      29.62R VSB 3/4
DETROIT LAKES  FOG       34  34 100 CALM      29.62R VSB 3/4
MOORHEAD       FOG       34  32  93 CALM      29.64R VSB 1/4
PARK RAPIDS    CLOUDY    34  31  88 NW3       29.60R FOG
MAHNOMEN       FOG       33  33  99 CALM      29.61R VSB 3/4
$$
MNZ006-009>011-018-025>026-221000-
   North Central Minnesota

CITY           SKY/WX    TMP DP  RH WIND       PRES   REMARKS
BAUDETTE       FOG       33  33 100 CALM      29.62R VSB 3/4
FLAG ISLAND    FOG       34  32  93 CALM      29.63R VSB 1
INTL FALLS     FOG       34  33  96 NE3       29.61R VSB 1/2
WASKISH        CLOUDY    34  34 100 CALM      29.62R FOG
BIG FORK       FOG       34  34 100 CALM      29.60R VSB 3/4
LONGVILLE      CLOUDY    34  34 100 CALM      29.60R FOG
GRAND RAPIDS   LGT RAIN  34  33  96 W5        29.61R VSB 3/4 WCI  30
CRANE LAKE     LGT RAIN  32  30  93 CALM      29.63R
ORR            CLOUDY    34  30  86 CALM      29.58R FOG
COOK           LGT RAIN  34  34 100 CALM      29.60R
WALKER         FOG       33  32  99 CALM      29.61R VSB 3/4
$$
MNZ012-019>021-037-221000-
   Northeast Minnesota

CITY           SKY/WX    TMP DP  RH WIND       PRES   REMARKS
DULUTH         DRIZZLE   34  34 100 N5        29.57R FOG     WCI  30
ELY            LGT SNOW  34  34 100 CALM      29.58S
HIBBING        FOG       32  32 100 CALM      29.59R VSB 1
EVELETH        CLOUDY    35  35  99 CALM      29.59R FOG
DULUTH HARBOR  CLOUDY    36  34  93 N7        29.60R FOG
TWO HARBORS    DRIZZLE   37  34  87 CALM      29.57R
SILVER BAY     CLOUDY    36  36 100 NE5       29.56R FOG
GRAND MARAIS     N/A     37  34  89 NE3       29.59R
G MARAIS ARPRT CLOUDY    30  28  93 N9        29.56R FOG     WCI  22
$$
MNZ029>031-032-039>041-046>048-054>057-064-221000-
   West Central Minnesota

CITY           SKY/WX    TMP DP  RH WIND       PRES   REMARKS
FERGUS FALLS   FOG       34  34 100 CALM      29.66R VSB 1/2
WHEATON        CLOUDY    39  39 100 CALM      29.66R FOG
MORRIS         MIX PCPN  34  34 100 NW6       29.62R VSB<1/4 WCI  29
ALEXANDRIA     FOG       34  34 100 N5        29.61R VSB 1   WCI  30
ELBOW LAKE     FOG       32  32 100 CALM      29.62R VSB 3/4
WADENA         FOG       32  32 100 CALM      29.60R VSB 3/4
GLENWOOD       CLOUDY    34  34 100 N3        29.61R FOG
APPLETON       CLOUDY    36  34  93 NW5       29.62R FOG
ORTONVILLE     CLOUDY    34  32  93 CALM      29.63R FOG
MADISON        FOG       36  36 100 NW8       29.62R VSB 1
WILLMAR        CLOUDY    34  34 100 CALM      29.62R FOG
$$
MNZ033>034-036-042>043-049>051-058-059-221000-
   Central Minnesota

CITY           SKY/WX    TMP DP  RH WIND       PRES   REMARKS
ST CLOUD       CLOUDY    33  33 100 NW5       29.59R FOG     WCI  29
SAUK CENTRE    FOG       33  33 100 CALM      29.61R VSB 1/4
PAYNESVILLE    CLOUDY    33  34 100 NW3       29.60R FOG
AITKIN         CLOUDY    36  34  93 W3        29.58R FOG
PINE RIVER     CLOUDY    34  34 100 CALM      29.64R FOG
BRAINERD       FOG       33  33 100 N6        29.60R VSB 1/2 WCI  28
STAPLES        FOG       34  34 100 CALM      29.60R VSB 1/2
LONG PRAIRIE   LGT SNOW  32  32 100 CALM      29.60R VSB 3/4
LITTLE FALLS   CLOUDY    34  32  93 CALM      29.61R FOG
LITCHFIELD     FOG       36  36 100 CALM      29.60R VSB 1/2
BUFFALO        FOG       34  33  97 CALM      29.60R VSB 3/4
MAPLE LAKE     FOG       35  35 100 NW3       29.60R VSB 1/2
HUTCHINSON     CLOUDY    34  34 100 NW6       29.60R FOG     WCI  29
$$
MNZ037-044-045-052-053-221000-
   East Central Minnesota

CITY           SKY/WX    TMP DP  RH WIND       PRES   REMARKS
PRINCETON      CLOUDY    36  34  93 CALM      29.59R FOG
MORA           CLOUDY    34  32  93 CALM      29.60R FOG
CAMBRIDGE      FOG       36  36 100 CALM      29.57R VSB 1/2
RUSH CITY      CLOUDY    34  34 100 CALM      29.59R FOG
MOOSE LAKE     CLOUDY    34  32  93 N3        29.57R FOG
HINCKLEY       FOG       34  34 100 NW5       29.59R VSB 1/2 WCI  30
CLOQUET        CLOUDY    34  34 100 N3        29.57S FOG
MCGREGOR       CLOUDY    34  34 100 N6        29.59R WCI  29
$$
MNZ071>073-080-081-089-090-097-098-221000-
   Southwest Minnesota

CITY           SKY/WX    TMP DP  RH WIND       PRES   REMARKS
MONTEVIDEO     FOG       34  34 100 N5        29.63R VSB 1/2 WCI  30
GRANITE FALLS  CLOUDY    34  34 100 NW8       29.62R FOG     WCI  27
CANBY          CLOUDY    34  34 100 CALM      29.63R
MARSHALL       FOG       33  33 100 NW10      29.62R VSB 1   WCI  25
REDWOOD FALLS  FOG       34  32  92 NW6       29.60R VSB 1/2 WCI  29
OLIVIA         FOG       34  34 100 NW5       29.60R VSB 3/4 WCI  30
PIPESTONE      CLOUDY    34  32  93 NW7       29.60R FOG     WCI  28
WINDOM         DRZL/FOG  34  34 100 NW8       29.58S VSB 1/2 WCI  27
WORTHINGTON    CLOUDY    32  31  96 W10       29.60R WCI  24
JACKSON        FOG       32  32 100 NW10      29.59R VSB 3/4 WCI  24
TRACY          FOG       34  34 100 NW9       29.61R VSB 1/2 WCI  27
SLAYTON        CLOUDY    32  32  99 NW12      29.60R FOG     WCI  23
$$
MNZ065>067-074>077-082>085-091>093-221000-
   South Central Minnesota

CITY           SKY/WX    TMP DP  RH WIND       PRES   REMARKS
MANKATO        FOG       33  33 100 NW5       29.59R VSB 1/4 WCI  29
NEW ULM        FOG       34  34 100 CALM      29.59R VSB 1/4
ST JAMES       FOG       34  34 100 W12       29.60R VSB 1/2 WCI  25
FAIRMONT       FOG       34  33  96 NW12      29.58R VSB 1/2 WCI  25
GLENCOE        FOG       35  35 100 NW5       29.58R VSB 3/4 WCI  31
OWATONNA       FOG       34  32  93 CALM      29.58R VSB 1/4
WASECA         FOG       32  32 100 CALM      29.59R VSB 1/4
ALBERT LEA     FOG       34  34 100 NW3       29.56R VSB 1/4
$$
MNZ078>079-086>088-094>096-221000-
   Southeast Minnesota

CITY           SKY/WX    TMP DP  RH WIND       PRES   REMARKS
ROCHESTER      FOG       33  33 100 W6        29.56R VSB 1/2 WCI  28
RED WING       FOG       36  34  93 CALM      29.57R VSB 1/4
STANTON        FOG       35  33  94 CALM      29.56R VSB 1/2
DODGE CENTER   FOG       32  32 100 CALM      29.56R VSB 1/4
WINONA         CLOUDY    34  34 100 CALM      29.57S FOG
AUSTIN         CLOUDY    34  32  93 CALM      29.56R FOG
PRESTON        CLOUDY    33  32  98 NW3       29.56R
$$
ABBREVIATIONS USED IN REMARKS
   TC - TEMPERATURES IN CELSIUS
  WCI - WIND CHILL INDEX
   HX - HEAT INDEX
  VSB - VISIBILITY
$$




USA.gov is the U.S. government's official web portal to all federal, state and local government web resources and services.